Flag for Canada Weather past 2 weeks in Kitchener, Ontario, Canada

Now
45 °F

Sunny.


Feels Like: 36 °F
Forecast: 38 / 56 °F
Wind: 23 mph from East

Location: Waterloo Well

Current Time: Apr 19, 2015 at 11:48:39 AM

Latest Report: Apr 19, 2015 at 11:00 AM


Visibility: 9 mi

Pressure: 30.16 "Hg

Humidity: 57%

Dew point: 30 °F

Location of KitchenerLocation

Historic Weather in Kitchener — Graph

°F

Kitchener temperature yesterday

Maximum temperature yesterday: 64 °F (at 1:00 PM)
Minimum temperature yesterday: 39 °F (at 5:00 AM)
Average temperature yesterday: 52 °F

Past Weeks' High & Low Weather Summary

 TemperatureHumidityPressure
High72 °F (Apr 13, 1:00 PM)100% (Apr 4, 10:00 PM)30.41 "Hg (Apr 4, 10:00 PM)
Low21 °F (Apr 5, 5:02 AM)19% (Apr 18, 3:00 PM)29.44 "Hg (Apr 10, 8:00 AM)
Average43 °F71%30.11 "Hg
* Reported Apr 4 10:00 AM — Apr 19 10:00 AM, Kitchener, Weather by CustomWeather, © 2015

Note: Actual official high and low records may vary slightly from our data, if they occured in-between our weather recording intervals... More about our weather records

Advertising

Kitchener weather history for previous 24 hours

 ConditionsComfort  
Time TempWeatherWind HumidityBarometerVisibility
10:00 AM
Sun, Apr 19
43 °FSunny.22 mph57%30.19 "Hg9 mi
9:00 AM43 °FSunny.20 mph61%30.22 "Hg9 mi
8:00 AM39 °FSunny.20 mph65%30.22 "Hg9 mi
7:00 AM37 °FClear.18 mph70%30.21 "Hg9 mi
6:00 AM39 °FClear.12 mph65%30.19 "Hg9 mi
5:00 AM36 °FClear.10 mph70%30.19 "Hg9 mi
4:00 AM39 °FClear.10 mph61%30.19 "Hg9 mi
3:00 AM37 °FClear.10 mph65%30.19 "Hg9 mi
2:00 AM41 °FClear.8 mph57%30.20 "Hg9 mi
1:00 AM43 °FClear.10 mph53%30.19 "Hg9 mi
12:04 AM45 °FClear.6 mph49%30.19 "Hg9 mi
11:00 PM
Sat, Apr 18
45 °FClear.7 mph53%30.19 "Hg9 mi
10:00 PM48 °FClear.6 mph43%30.20 "Hg9 mi
9:00 PM48 °FSunny.8 mph43%30.17 "Hg9 mi
8:00 PM54 °FSunny.9 mph33%30.15 "Hg9 mi
7:00 PM57 °FSunny.12 mph27%30.15 "Hg9 mi
6:00 PM61 °FSunny.12 mph22%30.14 "Hg9 mi
5:00 PM61 °FSunny.8 mph22%30.12 "Hg9 mi
4:00 PM61 °FSunny.16 mph23%30.10 "Hg9 mi
3:00 PM63 °FSunny.21 mph19%30.09 "Hg9 mi
2:00 PM63 °FSunny.15 mph30%30.08 "Hg9 mi
1:00 PM64 °FSunny.20 mph24%30.06 "Hg9 mi
12:00 PM63 °FSunny.17 mph30%30.05 "Hg9 mi
11:00 AM63 °FSunny.17 mph45%30.03 "Hg9 mi
Weather by CustomWeather, © 2015

See weather overviewHow to use our weather pages